Regional Weather Roundup
Issued by NWS Upton, NY

Current Version | Previous Version | Graphics & Text | Print | Product List | Glossary Off
Versions: 1 2 3 4 5 6 7 8 9 10 11 12 13 14 15 16 17 18 19 20 21 22 23 24 25 26 27 28 29 30 31 32 33 34 35 36 37 38 39 40 41 42 43 44 45 46 47 48 49 50

000
ASUS41 KOKX 022118
RWROKX

REGIONAL WEATHER ROUNDUP
NATIONAL WEATHER SERVICE NEW YORK NY
500 PM EDT TUE JUN 02 2015

NOTE: "FAIR" INDICATES FEW OR NO CLOUDS BELOW 12,000 FEET WITH NO
SIGNIFICANT WEATHER AND/OR OBSTRUCTIONS TO VISIBILITY.

NYZ071-072-176-178-NJZ106-104-022200-
NEW YORK CITY METRO AREA


CITY           SKY/WX    TMP DP  RH WIND       PRES   REMARKS
CENTRAL PARK   LGT RAIN  54  51  90 E3        30.15S
LAGUARDIA APRT LGT RAIN  54  50  86 NE8       30.12S
KENNEDY INTL   LGT RAIN  55  50  83 NE9       30.14R
NEWARK/LIBERTY LGT RAIN  55  52  89 E7        30.12S
BRNX BOT. GARD   N/A     52  50  93 SE8       30.15R
TETERBORO      LGT RAIN  56  52  86 CALM      30.11S
$$

NYZ177-179-078>081-022200-
LONG ISLAND NEW YORK

CITY           SKY/WX    TMP DP  RH WIND       PRES   REMARKS
FARMINGDALE    CLOUDY    53  50  89 NE9       30.13S
ISLIP          LGT RAIN  53  50  89 NE9       30.10F
SHIRLEY        LGT RAIN  53  50  89 VRB5      30.13S
WESTHAMPTON    LGT RAIN  53  50  89 NE9       30.14R
MONTAUK POINT    N/A     52  49  89 NE7       30.13F
$$

NYZ052-065-067-022200-
HUDSON VALLEY

CITY           SKY/WX    TMP DP  RH WIND       PRES   REMARKS
WHITE PLAINS   LGT RAIN  54  52  93 CALM      30.12S
NEWBURGH       DRIZZLE   54  52  94 E8        30.14F
MONTGOMERY     CLOUDY    57  51  80 NE9       30.12F
POUGHKEEPSIE   CLOUDY    58  50  75 N8        30.12F
ALBANY         CLOUDY    62  48  60 VRB3      30.14F
$$

NJZ001-105-106-008-010-013-015-019>022-104-022200-
NEW JERSEY

CITY           SKY/WX    TMP DP  RH WIND       PRES   REMARKS
NEWARK/LIBERTY LGT RAIN  55  52  89 E7        30.12S
TETERBORO      LGT RAIN  56  52  86 CALM      30.11S
CALDWELL       LGT RAIN  55  52  89 VRB3      30.13R
MORRISTOWN     DRIZZLE   63  59  88 N6        30.13S
SOMERVILLE     LGT RAIN  56  53  90 CALM      30.11S
SUSSEX         LGT RAIN  54  51  90 NE5       30.13S
ANDOVER          N/A     53  52  96 NE5       30.13S
TRENTON        LGT RAIN  56  53  90 NE7       30.11S
MILLVILLE      RAIN      56  54  93 NE9       30.10R FOG
ATLANTIC CITY  LGT RAIN  55  53  93 NE8       30.10R
WRIGHTSTOWN    LGT RAIN  55  54  94 NE8       30.09S FOG
TOMS RIVER     CLOUDY   N/A N/A N/A NE10      30.11S
BELMAR         CLOUDY    54  46  76 NE7       30.12S
$$

PAZ047>061-062-071-022200-
EASTERN PENNSYLVANIA

CITY           SKY/WX    TMP DP  RH WIND       PRES   REMARKS
PHILADELPHIA   LGT RAIN  57  54  89 NE9       30.12S FOG
ALLENTOWN      LGT RAIN  57  55  94 NE3       30.12S
SCRANTON       CLOUDY    58  54  86 CALM      30.12S
$$

CTZ002-004>006-009-010-012-RIZ004-006-007-MAZ004-011-015-022200-
SOUTHERN NEW ENGLAND
 IN CT

CITY           SKY/WX    TMP DP  RH WIND       PRES   REMARKS
BRADLEY INTL   CLOUDY    55  47  74 NE8       30.14S
HARTFORD       CLOUDY    55  47  74 N10       30.14S
DANBURY        LGT RAIN  53  48  83 NE6       30.14S
WTRBRY/OXFORD  CLOUDY    52  45  76 NE9       30.15S
BRIDGEPORT     LGT RAIN  54  51  90 NE9       30.13S
MERIDEN        CLOUDY    54  48  80 N6        30.14S
NEW HAVEN      LGT RAIN  53  50  89 N9        30.13S
CHESTER        CLOUDY    52  48  87 NE5       30.14R
GROTON         LGT RAIN  52  48  86 NE9       30.13R
WILLIMANTIC    CLOUDY    52  46  80 NE13      30.14F

 IN RI

CITY           SKY/WX    TMP DP  RH WIND       PRES   REMARKS
PROVIDENCE     CLOUDY    50  45  83 N16       30.14F
BLOCK ISLAND   CLOUDY    50  45  81 NE13G18   30.13F
WESTERLY       LGT RAIN  51  48  89 N8        30.13F

 IN MA

CITY           SKY/WX    TMP DP  RH WIND       PRES   REMARKS
BOSTON         CLOUDY    48  44  86 NE15      30.17S
WORCESTER      CLOUDY    48  44  86 NE6       30.15S
WESTFIELD      CLOUDY    55  46  71 N8        30.15S
PROVINCETOWN   CLOUDY    48  45  87 N14G21    30.14S
NANTUCKET      LGT RAIN  52  48  86 N17       30.10S
$$

ANZ330-335-338-340-345-350-353-355-022200-
COASTAL MARINE OBSERVATIONS


STATION/POSITION TIME  SKY/WX   TEMP    WIND        PRES    VSBY  WAVE
                                AIR SEA DIR/SP/G                  HT/PER
                 (UTC)          (F)     (DEG/KT/KT) (MB)    (MI)  (FT/S)
NY HARB ENTRANCE 2050            54 56   40/ 12/ 14 1019.3          4/ 5
4S FIRE IS       2003               56                N/A           3/ 6
20S FIRE ISLAND  2050            53 56   40/ 17/ 21 1018.9          4/ 6
GREAT SOUTH BAY  2000            53 65   20/ 12/ 14   N/A
23SW MTP         2050            52 56   30/ 17/ 19 1019.3          4/ 5
HUDSON CANYON    NOT AVBL
KINGS POINT      2000            53 56   50/  7/ 10 1019.5
CENTRAL LI SOUND 2000            52 56   50/ 10/ 14   N/A
EASTERN LI SOUND 2000            51      20/ 10/ 14   N/A
ROBBINS REEF     2000            54      50/  8/ 10 1019.0
$$


>>>>>>>>>>>>>>>>>>>>>>>>>>>> KEY <<<<<<<<<<<<<<<<<<<<<<<<<<<
>                                                          <
>     SKY/WX - SKY CONDITION/PRESENT WEATHER               <
>     TMP    - TEMPERATURE IN FAHRENHEIT                   <
>     DP     - DEWPOINT IN FAHRENHEIT                      <
>     RH     - RELATIVE HUMIDITY IN PERCENT                <
>     WIND   - DIRECTION AND SPEED IN MPH                  <
>     PRES   - MEAN SEA LEVEL PRESSURE IN INCHES OF HG     <
>     WCI    - WIND CHILL INDEX                            <
>     VSB    - VISIBILITY IN MILES                         <
>     HX     - HEAT INDEX                                  <
>     TC     - TEMPERATURE IN CELSIUS                      <
>     VRB    - VARIABLE WIND DIRECTION                     <
>                                                          <
>>>>>>>>>>>>>>>>>>>>>>>>>>>> KEY <<<<<<<<<<<<<<<<<<<<<<<<<<<




USA.gov is the U.S. government's official web portal to all federal, state and local government web resources and services.